Station Historical Data
Daily Summary for September 4, 2017 Units:  Metric    English   Both
« Previous Day
Next Day »
Daily Weekly Monthly Yearly Custom
  High: Low: Average:
Temperature: 27.1 °C 16.2 °C 21.7 °C
Dew Point: 18.7 °C 12.6 °C 15.3 °C
Humidity: 89% 50% 69%
Wind Speed: 30.6km/h 0km/h 9.8km/h
Wind Gust: 43.5km/h - -
Wind- - SW
Pressure: 1012.1 hPa 1000.6 hPa -
Precipitation: 0 mm    
Historical Graphs
 
 
Tabular Data for September 4, 2017
Time Temperature Dew Point Pressure Wind Wind Speed Wind Gust Humidity Rainfall Rate (Hourly)
00:04 17.8 °C 13.5 °C 1012.1 hPa West 3.2 km/h 14.5 km/h 76% 0 mm
00:09 17.8 °C 13.5 °C 1011.7 hPa Calm   8 km/h 76% 0 mm
00:14 17.8 °C 13.7 °C 1011.7 hPa WSW 6.4 km/h 11.3 km/h 77% 0 mm
00:19 17.9 °C 13.8 °C 1011.7 hPa WSW 3.2 km/h 11.3 km/h 77% 0 mm
00:24 17.9 °C 13.8 °C 1011.7 hPa WSW 3.2 km/h 8 km/h 77% 0 mm
00:29 18.2 °C 14.1 °C 1011.7 hPa WSW 6.4 km/h 14.5 km/h 77% 0 mm
00:34 18.4 °C 14.5 °C 1011.7 hPa West 11.3 km/h 14.5 km/h 78% 0 mm
00:39 18.6 °C 14.5 °C 1011.7 hPa SW 14.5 km/h 16.1 km/h 77% 0 mm
00:44 18.8 °C 14.7 °C 1011.7 hPa WSW 4.8 km/h 17.7 km/h 77% 0 mm
00:49 18.8 °C 14.7 °C 1011.7 hPa WSW 8 km/h 19.3 km/h 77% 0 mm
00:54 18.8 °C 14.7 °C 1011.7 hPa WSW 8 km/h 19.3 km/h 77% 0 mm
00:59 19 °C 14.9 °C 1011.7 hPa WSW 8 km/h 16.1 km/h 77% 0 mm
01:04 19.1 °C 15 °C 1011.7 hPa WSW 8 km/h 22.5 km/h 77% 0 mm
01:09 19.1 °C 15 °C 1011.7 hPa WSW 8 km/h 22.5 km/h 77% 0 mm
01:14 19 °C 15.1 °C 1011.7 hPa WSW 4.8 km/h 17.7 km/h 78% 0 mm
01:19 19 °C 15.1 °C 1011.7 hPa WSW 12.9 km/h 14.5 km/h 78% 0 mm
01:24 19 °C 15.1 °C 1011.7 hPa SW 12.9 km/h 14.5 km/h 78% 0 mm
01:29 19 °C 15.1 °C 1011.7 hPa WSW 16.1 km/h 16.1 km/h 78% 0 mm
01:34 19 °C 15.1 °C 1011.7 hPa SW 9.7 km/h 19.3 km/h 78% 0 mm
01:39 18.6 °C 15.1 °C 1011.4 hPa SSW 6.4 km/h 12.9 km/h 80% 0 mm
01:44 18.2 °C 15.1 °C 1011.4 hPa South 1.6 km/h 11.3 km/h 82% 0 mm
01:49 18 °C 15.1 °C 1011.4 hPa SSW 4.8 km/h 12.9 km/h 83% 0 mm
01:54 17.9 °C 15.2 °C 1011.4 hPa SSW 4.8 km/h 16.1 km/h 84% 0 mm
01:59 17.9 °C 15.2 °C 1011.4 hPa SSW 6.4 km/h 16.1 km/h 84% 0 mm
02:04 17.9 °C 15.2 °C 1011.4 hPa SSW 6.4 km/h 16.1 km/h 84% 0 mm
02:09 17.9 °C 15.2 °C 1011.4 hPa SW 6.4 km/h 16.1 km/h 84% 0 mm
02:14 17.9 °C 15.3 °C 1011.4 hPa SW 6.4 km/h 14.5 km/h 85% 0 mm
02:19 17.9 °C 15.4 °C 1011.4 hPa SW 1.6 km/h 11.3 km/h 85% 0 mm
02:24 17.9 °C 15.4 °C 1011.4 hPa SW 3.2 km/h 11.3 km/h 85% 0 mm
02:29 17.9 °C 15.4 °C 1011.4 hPa SW 4.8 km/h 12.9 km/h 85% 0 mm
02:34 17.8 °C 15.3 °C 1011.4 hPa SW 6.4 km/h 14.5 km/h 85% 0 mm
02:39 17.7 °C 15.2 °C 1011.4 hPa SSW 6.4 km/h 14.5 km/h 85% 0 mm
02:44 17.6 °C 15.1 °C 1011.4 hPa SW 1.6 km/h 14.5 km/h 85% 0 mm
02:49 17.4 °C 14.9 °C 1011.4 hPa SW 1.6 km/h 9.7 km/h 85% 0 mm
02:54 17.3 °C 14.8 °C 1011.4 hPa SW 6.4 km/h 14.5 km/h 85% 0 mm
02:59 17.2 °C 14.6 °C 1011.4 hPa SW 4.8 km/h 14.5 km/h 85% 0 mm
03:04 17.1 °C 14.5 °C 1011.4 hPa SSW 4.8 km/h 11.3 km/h 85% 0 mm
03:09 17 °C 14.4 °C 1011.4 hPa SSW 4.8 km/h 14.5 km/h 85% 0 mm
03:14 16.9 °C 14.4 °C 1011.4 hPa SSW 4.8 km/h 14.5 km/h 85% 0 mm
03:19 16.9 °C 14.2 °C 1011.1 hPa SW 3.2 km/h 12.9 km/h 84% 0 mm
03:24 16.9 °C 14.2 °C 1011.1 hPa SW 1.6 km/h 12.9 km/h 84% 0 mm
03:29 16.8 °C 14.1 °C 1011.1 hPa SSW 1.6 km/h 9.7 km/h 84% 0 mm
03:34 16.7 °C 14 °C 1011.1 hPa South 4.8 km/h 9.7 km/h 84% 0 mm
03:39 16.8 °C 13.9 °C 1011.4 hPa SW 8 km/h 11.3 km/h 83% 0 mm
03:44 16.7 °C 13.6 °C 1011.4 hPa SW 4.8 km/h 8 km/h 82% 0 mm
03:49 16.7 °C 13.6 °C 1011.1 hPa Calm   9.7 km/h 82% 0 mm
03:54 16.7 °C 13.4 °C 1011.1 hPa SW 4.8 km/h 9.7 km/h 81% 0 mm
03:59 16.7 °C 13.4 °C 1011.1 hPa SW 3.2 km/h 6.4 km/h 81% 0 mm
04:04 16.7 °C 13.4 °C 1011.1 hPa SW 4.8 km/h 9.7 km/h 81% 0 mm
04:09 16.8 °C 13.5 °C 1011.1 hPa SW 4.8 km/h 11.3 km/h 81% 0 mm
04:14 16.8 °C 13.3 °C 1011.1 hPa SW 4.8 km/h 11.3 km/h 80% 0 mm
04:19 16.9 °C 13.4 °C 1011.1 hPa SW 4.8 km/h 11.3 km/h 80% 0 mm
04:24 17 °C 13.3 °C 1011.1 hPa SW 4.8 km/h 12.9 km/h 79% 0 mm
04:29 17.2 °C 13.5 °C 1011.1 hPa SW 6.4 km/h 12.9 km/h 79% 0 mm
04:34 17.2 °C 13.5 °C 1011.1 hPa SW 3.2 km/h 11.3 km/h 79% 0 mm
04:39 17.2 °C 13.3 °C 1011.1 hPa SW 3.2 km/h 9.7 km/h 78% 0 mm
04:44 17.2 °C 13.3 °C 1011.1 hPa SSW 3.2 km/h 14.5 km/h 78% 0 mm
04:49 17.2 °C 13.1 °C 1011.1 hPa WSW 6.4 km/h 11.3 km/h 77% 0 mm
04:54 17.2 °C 13.2 °C 1011.1 hPa SSW 3.2 km/h 12.9 km/h 77% 0 mm
04:59 17.3 °C 13 °C 1011.1 hPa SSW 3.2 km/h 12.9 km/h 76% 0 mm
05:04 17.2 °C 12.9 °C 1011.1 hPa SW 4.8 km/h 12.9 km/h 76% 0 mm
05:09 17 °C 12.7 °C 1010.7 hPa SW 4.8 km/h 9.7 km/h 76% 0 mm
05:14 17 °C 12.7 °C 1010.7 hPa SW 1.6 km/h 8 km/h 76% 0 mm
05:19 16.8 °C 12.8 °C 1010.7 hPa SSW 4.8 km/h 11.3 km/h 77% 0 mm
05:24 16.7 °C 12.7 °C 1010.7 hPa WSW 3.2 km/h 9.7 km/h 77% 0 mm
05:29 16.6 °C 12.7 °C 1010.7 hPa SSW 3.2 km/h 4.8 km/h 78% 0 mm
05:34 16.5 °C 12.7 °C 1010.7 hPa SW 1.6 km/h 11.3 km/h 78% 0 mm
05:39 16.4 °C 12.6 °C 1010.7 hPa SSW 3.2 km/h 11.3 km/h 78% 0 mm
05:44 16.3 °C 12.7 °C 1010.7 hPa SSW 3.2 km/h 11.3 km/h 79% 0 mm
05:49 16.3 °C 12.7 °C 1010.7 hPa SSW 3.2 km/h 11.3 km/h 79% 0 mm
05:54 16.4 °C 12.8 °C 1010.7 hPa SSW 3.2 km/h 9.7 km/h 79% 0 mm
05:59 16.6 °C 12.7 °C 1010.7 hPa SSW 4.8 km/h 9.7 km/h 78% 0 mm
06:04 16.5 °C 12.7 °C 1011.1 hPa SSW 1.6 km/h 6.4 km/h 78% 0 mm
06:09 16.4 °C 12.8 °C 1011.1 hPa SSW 3.2 km/h 9.7 km/h 79% 0 mm
06:14 16.4 °C 12.7 °C 1011.1 hPa SSW 4.8 km/h 9.7 km/h 79% 0 mm
06:19 16.4 °C 12.8 °C 1011.1 hPa SSW 3.2 km/h 8 km/h 79% 0 mm
06:24 16.3 °C 12.7 °C 1011.1 hPa SSW 1.6 km/h 8 km/h 79% 0 mm
06:29 16.3 °C 12.8 °C 1011.1 hPa SSW 1.6 km/h 9.7 km/h 80% 0 mm
06:34 16.3 °C 12.8 °C 1011.1 hPa SSW 4.8 km/h 12.9 km/h 80% 0 mm
06:39 16.3 °C 12.8 °C 1011.1 hPa SSW 3.2 km/h 12.9 km/h 80% 0 mm
06:44 16.2 °C 12.8 °C 1011.1 hPa SSW 4.8 km/h 11.3 km/h 80% 0 mm
06:49 16.2 °C 12.8 °C 1011.1 hPa SSW 4.8 km/h 11.3 km/h 80% 0 mm
06:54 16.3 °C 12.8 °C 1011.1 hPa SSW 3.2 km/h 12.9 km/h 80% 0 mm
06:59 16.4 °C 12.9 °C 1011.1 hPa SSW 4.8 km/h 12.9 km/h 80% 0 mm
07:04 16.4 °C 13 °C 1011.1 hPa SSW 4.8 km/h 11.3 km/h 80% 0 mm
07:09 16.4 °C 13 °C 1011.1 hPa SSW 6.4 km/h 9.7 km/h 80% 0 mm
07:14 16.5 °C 13.1 °C 1011.1 hPa SSW 4.8 km/h 11.3 km/h 80% 0 mm
07:19 16.6 °C 13.1 °C 1011.1 hPa SSW 6.4 km/h 9.7 km/h 80% 0 mm
07:24 16.7 °C 13 °C 1011.1 hPa SW 3.2 km/h 9.7 km/h 79% 0 mm
07:29 16.7 °C 13.1 °C 1011.1 hPa SSW 8 km/h 11.3 km/h 79% 0 mm
07:34 16.8 °C 13.1 °C 1011.1 hPa SSW 9.7 km/h 14.5 km/h 79% 0 mm
07:39 16.9 °C 13.2 °C 1011.1 hPa SSE 4.8 km/h 12.9 km/h 79% 0 mm
07:44 17 °C 13.1 °C 1010.7 hPa SSW 6.4 km/h 12.9 km/h 78% 0 mm
07:49 17.1 °C 13.2 °C 1011.1 hPa SSW 6.4 km/h 12.9 km/h 78% 0 mm
07:54 17.2 °C 13.2 °C 1011.1 hPa SSW 6.4 km/h 19.3 km/h 77% 0 mm
07:59 17.3 °C 13.2 °C 1011.1 hPa SSW 8 km/h 19.3 km/h 77% 0 mm
08:04 17.4 °C 13.1 °C 1011.1 hPa SSW 8 km/h 16.1 km/h 76% 0 mm
08:09 17.5 °C 13.2 °C 1011.1 hPa SSW 6.4 km/h 17.7 km/h 76% 0 mm
08:14 17.6 °C 13.3 °C 1011.1 hPa SSW 8 km/h 17.7 km/h 76% 0 mm
08:19 17.8 °C 13.3 °C 1011.1 hPa SSW 8 km/h 17.7 km/h 75% 0 mm
08:24 18 °C 13.5 °C 1011.1 hPa SW 6.4 km/h 14.5 km/h 75% 0 mm
08:29 18.2 °C 13.7 °C 1011.1 hPa South 11.3 km/h 14.5 km/h 75% 0 mm
08:34 18.4 °C 13.7 °C 1011.1 hPa SW 4.8 km/h 16.1 km/h 74% 0 mm
08:39 18.6 °C 13.4 °C 1010.7 hPa SW 8 km/h 19.3 km/h 72% 0 mm
08:44 18.8 °C 13.6 °C 1010.7 hPa WSW 12.9 km/h 12.9 km/h 72% 0 mm
08:49 19.1 °C 13.7 °C 1010.7 hPa SW 6.4 km/h 17.7 km/h 71% 0 mm
08:54 19.2 °C 13.8 °C 1010.7 hPa SSW 4.8 km/h 19.3 km/h 71% 0 mm
08:59 19.3 °C 13.7 °C 1010.7 hPa SSW 9.7 km/h 19.3 km/h 70% 0 mm
09:04 19.6 °C 13.7 °C 1010.7 hPa SW 3.2 km/h 16.1 km/h 69% 0 mm
09:09 19.6 °C 13.8 °C 1010.7 hPa SSW 14.5 km/h 20.9 km/h 69% 0 mm
09:14 19.8 °C 13.9 °C 1010.7 hPa West 14.5 km/h 22.5 km/h 69% 0 mm
09:19 19.8 °C 13.8 °C 1010.7 hPa SW 8 km/h 22.5 km/h 68% 0 mm
09:24 20 °C 13.7 °C 1010.7 hPa SW 9.7 km/h 20.9 km/h 67% 0 mm
09:29 20.2 °C 13.8 °C 1010.7 hPa SW 11.3 km/h 22.5 km/h 67% 0 mm
09:34 20.4 °C 14.3 °C 1010.7 hPa SW 11.3 km/h 22.5 km/h 68% 0 mm
09:39 20.7 °C 14.1 °C 1010.7 hPa SW 9.7 km/h 19.3 km/h 66% 0 mm
09:44 20.8 °C 14.5 °C 1010.7 hPa SSW 9.7 km/h 24.1 km/h 67% 0 mm
09:49 21.1 °C 14.2 °C 1010.7 hPa SW 9.7 km/h 24.1 km/h 65% 0 mm
09:54 21.2 °C 14.6 °C 1010.4 hPa WSW 11.3 km/h 27.4 km/h 66% 0 mm
09:59 21.4 °C 14.6 °C 1010.4 hPa WNW 9.7 km/h 19.3 km/h 65% 0 mm
10:04 21.7 °C 14.8 °C 1010.4 hPa SSW 11.3 km/h 22.5 km/h 65% 0 mm
10:09 21.7 °C 14.8 °C 1010.4 hPa WSW 14.5 km/h 25.7 km/h 65% 0 mm
10:14 21.8 °C 15.2 °C 1010.4 hPa SW 14.5 km/h 25.7 km/h 66% 0 mm
10:19 22 °C 15.1 °C 1010 hPa West 8 km/h 19.3 km/h 65% 0 mm
10:24 22.1 °C 14.9 °C 1010 hPa WSW 11.3 km/h 24.1 km/h 64% 0 mm
10:29 22.2 °C 15.5 °C 1009.7 hPa WSW 11.3 km/h 24.1 km/h 66% 0 mm
10:34 22.4 °C 15.7 °C 1009.7 hPa WSW 11.3 km/h 25.7 km/h 66% 0 mm
10:39 22.6 °C 15.7 °C 1009.4 hPa WSW 9.7 km/h 25.7 km/h 65% 0 mm
10:44 22.7 °C 15.5 °C 1009.4 hPa SW 16.1 km/h 17.7 km/h 64% 0 mm
10:49 22.7 °C 15.5 °C 1009.4 hPa WSW 9.7 km/h 25.7 km/h 64% 0 mm
10:54 22.8 °C 15.6 °C 1009 hPa SW 12.9 km/h 27.4 km/h 64% 0 mm
10:59 22.8 °C 15.4 °C 1009 hPa SW 16.1 km/h 29 km/h 63% 0 mm
11:04 22.9 °C 15.7 °C 1009 hPa West 22.5 km/h 30.6 km/h 64% 0 mm
11:09 23 °C 15.8 °C 1009 hPa WSW 17.7 km/h 25.7 km/h 64% 0 mm
11:14 23 °C 15.6 °C 1008.7 hPa SW 24.1 km/h 35.4 km/h 63% 0 mm
11:19 23.1 °C 15.9 °C 1009 hPa WSW 12.9 km/h 37 km/h 64% 0 mm
11:24 23.2 °C 16.3 °C 1009 hPa SW 16.1 km/h 37 km/h 65% 0 mm
11:29 23.6 °C 16.6 °C 1009 hPa SW 12.9 km/h 35.4 km/h 65% 0 mm
11:34 23.4 °C 16.2 °C 1009 hPa WSW 12.9 km/h 24.1 km/h 64% 0 mm
11:39 23.4 °C 15.9 °C 1008.7 hPa WSW 16.1 km/h 35.4 km/h 63% 0 mm
11:44 23.3 °C 15.8 °C 1009 hPa WSW 17.7 km/h 35.4 km/h 63% 0 mm
11:49 23.2 °C 15.7 °C 1008.7 hPa West 19.3 km/h 41.8 km/h 63% 0 mm
11:54 23.3 °C 15.7 °C 1008.7 hPa WSW 17.7 km/h 41.8 km/h 62% 0 mm
11:59 23.3 °C 15.4 °C 1008.7 hPa WSW 22.5 km/h 32.2 km/h 61% 0 mm
12:04 23.5 °C 15.8 °C 1008.4 hPa SSW 12.9 km/h 33.8 km/h 62% 0 mm
12:09 23.8 °C 15.6 °C 1008.4 hPa WSW 12.9 km/h 33.8 km/h 60% 0 mm
12:14 23.9 °C 15.4 °C 1008.4 hPa SW 14.5 km/h 29 km/h 59% 0 mm
12:19 24.1 °C 15.6 °C 1008 hPa WSW 17.7 km/h 30.6 km/h 59% 0 mm
12:24 24.2 °C 15.4 °C 1008 hPa SW 12.9 km/h 43.5 km/h 58% 0 mm
12:29 24.2 °C 15.1 °C 1008 hPa SW 17.7 km/h 43.5 km/h 57% 0 mm
12:34 24.3 °C 15.8 °C 1007.7 hPa SW 17.7 km/h 41.8 km/h 59% 0 mm
12:39 24.5 °C 14.9 °C 1007.7 hPa SW 16.1 km/h 40.2 km/h 55% 0 mm
12:44 24.6 °C 14.9 °C 1007.7 hPa WSW 17.7 km/h 40.2 km/h 55% 0 mm
12:49 24.9 °C 14.9 °C 1007.7 hPa WSW 16.1 km/h 35.4 km/h 54% 0 mm
12:54 24.8 °C 14.3 °C 1007.7 hPa SW 16.1 km/h 40.2 km/h 52% 0 mm
12:59 24.8 °C 14.6 °C 1007.7 hPa WSW 11.3 km/h 41.8 km/h 53% 0 mm
13:04 25 °C 15.3 °C 1007.3 hPa SW 9.7 km/h 27.4 km/h 55% 0 mm
13:09 25.1 °C 14.8 °C 1007.3 hPa SSW 24.1 km/h 30.6 km/h 53% 0 mm
13:14 25 °C 15.1 °C 1007 hPa SW 30.6 km/h 41.8 km/h 54% 0 mm
13:19 24.9 °C 15 °C 1007 hPa South 3.2 km/h 40.2 km/h 54% 0 mm
13:24 25.2 °C 14.9 °C 1006.7 hPa SW 24.1 km/h 37 km/h 53% 0 mm
13:29 25.2 °C 14.9 °C 1006.7 hPa SW 16.1 km/h 37 km/h 53% 0 mm
13:34 25.6 °C 15.3 °C 1006.7 hPa SW 14.5 km/h 32.2 km/h 53% 0 mm
13:39 25.5 °C 14.9 °C 1006.7 hPa SW 14.5 km/h 33.8 km/h 52% 0 mm
13:44 25.5 °C 15.2 °C 1006.7 hPa SW 16.1 km/h 33.8 km/h 53% 0 mm
13:49 25.4 °C 14.9 °C 1006.7 hPa SW 16.1 km/h 33.8 km/h 52% 0 mm
13:54 25.3 °C 14.8 °C 1006.7 hPa SSW 8 km/h 32.2 km/h 52% 0 mm
13:59 25.5 °C 14.9 °C 1006.3 hPa SW 16.1 km/h 32.2 km/h 52% 0 mm
14:04 25.5 °C 15.2 °C 1006.3 hPa SW 17.7 km/h 35.4 km/h 53% 0 mm
14:09 25.6 °C 15.3 °C 1006.3 hPa SW 16.1 km/h 37 km/h 53% 0 mm
14:14 25.7 °C 15.1 °C 1006.3 hPa SSW 9.7 km/h 30.6 km/h 52% 0 mm
14:19 25.9 °C 15.3 °C 1006 hPa SSW 14.5 km/h 30.6 km/h 52% 0 mm
14:24 25.8 °C 15.2 °C 1006 hPa South 19.3 km/h 29 km/h 52% 0 mm
14:29 26.1 °C 16.1 °C 1006 hPa SW 14.5 km/h 29 km/h 54% 0 mm
14:34 26.1 °C 15.8 °C 1006 hPa SW 12.9 km/h 29 km/h 53% 0 mm
14:39 25.9 °C 15.6 °C 1006 hPa SW 16.1 km/h 38.6 km/h 53% 0 mm
14:44 25.9 °C 15.9 °C 1005.6 hPa WNW 17.7 km/h 30.6 km/h 54% 0 mm
14:49 26.3 °C 15.9 °C 1005.6 hPa SSW 22.5 km/h 24.1 km/h 53% 0 mm
14:54 26.3 °C 16.2 °C 1005.3 hPa SW 12.9 km/h 24.1 km/h 54% 0 mm
14:59 26.2 °C 15.9 °C 1005.3 hPa SW 14.5 km/h 29 km/h 53% 0 mm
15:04 25.9 °C 15.9 °C 1005.3 hPa SW 14.5 km/h 29 km/h 54% 0 mm
15:09 26.1 °C 16.1 °C 1005.3 hPa WSW 17.7 km/h 29 km/h 54% 0 mm
15:14 26.3 °C 16.2 °C 1005.3 hPa South 14.5 km/h 25.7 km/h 54% 0 mm
15:19 26.4 °C 16.1 °C 1005.3 hPa WSW 25.7 km/h 27.4 km/h 53% 0 mm
15:24 26.2 °C 16.2 °C 1005 hPa WSW 14.5 km/h 27.4 km/h 54% 0 mm
15:29 26.2 °C 15.8 °C 1005 hPa WSW 14.5 km/h 29 km/h 53% 0 mm
15:34 26.3 °C 16.2 °C 1004.6 hPa WSW 14.5 km/h 33.8 km/h 54% 0 mm
15:39 26.4 °C 16.3 °C 1004.6 hPa WSW 9.7 km/h 32.2 km/h 54% 0 mm
15:44 26.3 °C 16.2 °C 1004.3 hPa South 16.1 km/h 29 km/h 54% 0 mm
15:49 26.3 °C 16.2 °C 1003.9 hPa WSW 6.4 km/h 25.7 km/h 54% 0 mm
15:54 26.4 °C 16.6 °C 1003.9 hPa SW 12.9 km/h 25.7 km/h 55% 0 mm
15:59 26.3 °C 16.3 °C 1003.6 hPa SW 11.3 km/h 32.2 km/h 54% 0 mm
16:04 26.2 °C 16.4 °C 1003.6 hPa SW 12.9 km/h 32.2 km/h 55% 0 mm
16:09 26.3 °C 16.6 °C 1003.6 hPa SW 12.9 km/h 32.2 km/h 55% 0 mm
16:14 26.3 °C 16.8 °C 1003.6 hPa WSW 16.1 km/h 25.7 km/h 56% 0 mm
16:19 26.2 °C 16.4 °C 1003.3 hPa SW 9.7 km/h 20.9 km/h 55% 0 mm
16:24 26.1 °C 16.6 °C 1002.9 hPa SW 11.3 km/h 25.7 km/h 56% 0 mm
16:29 26.1 °C 16.9 °C 1002.9 hPa SW 11.3 km/h 27.4 km/h 57% 0 mm
16:34 26.3 °C 16.6 °C 1002.9 hPa SSW 11.3 km/h 17.7 km/h 55% 0 mm
16:39 26.4 °C 16.7 °C 1002.6 hPa WSW 9.7 km/h 25.7 km/h 55% 0 mm
16:44 26.7 °C 15.4 °C 1002.9 hPa SSW 12.9 km/h 30.6 km/h 50% 0 mm
16:49 26.9 °C 15.6 °C 1002.6 hPa SSW 8 km/h 25.7 km/h 50% 0 mm
16:54 27 °C 16 °C 1002.6 hPa SSW 11.3 km/h 25.7 km/h 51% 0 mm
16:59 27 °C 15.7 °C 1002.6 hPa SSW 11.3 km/h 30.6 km/h 50% 0 mm
17:04 27 °C 15.7 °C 1002.3 hPa SSW 11.3 km/h 30.6 km/h 50% 0 mm
17:09 27.1 °C 16.1 °C 1002.6 hPa SSW 9.7 km/h 24.1 km/h 51% 0 mm
17:14 26.8 °C 16.1 °C 1002.3 hPa SSW 11.3 km/h 27.4 km/h 52% 0 mm
17:19 26.7 °C 16.3 °C 1002.3 hPa SSW 12.9 km/h 27.4 km/h 53% 0 mm
17:24 26.6 °C 16.2 °C 1002.3 hPa South 8 km/h 29 km/h 53% 0 mm
17:29 26.4 °C 15.8 °C 1002.3 hPa South 24.1 km/h 37 km/h 52% 0 mm
17:34 26.4 °C 15.7 °C 1002.3 hPa SSE 8 km/h 43.5 km/h 52% 0 mm
17:39 26.4 °C 16.1 °C 1002.3 hPa SW 17.7 km/h 24.1 km/h 53% 0 mm
17:44 26.3 °C 15.9 °C 1002.3 hPa SW 20.9 km/h 32.2 km/h 53% 0 mm
17:49 26.3 °C 15.9 °C 1002.3 hPa SSW 16.1 km/h 25.7 km/h 53% 0 mm
17:54 26.3 °C 16 °C 1002.3 hPa SSW 11.3 km/h 27.4 km/h 53% 0 mm
17:59 26.3 °C 15.9 °C 1001.9 hPa SSW 12.9 km/h 27.4 km/h 53% 0 mm
18:04 26.2 °C 16.1 °C 1001.9 hPa SSW 12.9 km/h 33.8 km/h 54% 0 mm
18:09 26.1 °C 16.1 °C 1001.6 hPa SSW 11.3 km/h 33.8 km/h 54% 0 mm
18:14 26.1 °C 16.1 °C 1001.6 hPa SSW 11.3 km/h 32.2 km/h 54% 0 mm
18:19 26.1 °C 16.3 °C 1001.6 hPa SSW 11.3 km/h 32.2 km/h 55% 0 mm
18:24 25.9 °C 16.2 °C 1001.6 hPa SSW 11.3 km/h 29 km/h 55% 0 mm
18:29 25.9 °C 16.2 °C 1001.6 hPa SSW 12.9 km/h 29 km/h 55% 0 mm
18:34 25.8 °C 16.1 °C 1001.6 hPa SSW 14.5 km/h 29 km/h 55% 0 mm
18:39 25.8 °C 16.4 °C 1001.2 hPa SSW 11.3 km/h 25.7 km/h 56% 0 mm
18:44 25.8 °C 16.3 °C 1001.2 hPa South 24.1 km/h 32.2 km/h 56% 0 mm
18:49 25.7 °C 16.3 °C 1000.9 hPa SSW 6.4 km/h 29 km/h 56% 0 mm
18:54 25.6 °C 16.2 °C 1001.2 hPa SSW 12.9 km/h 35.4 km/h 56% 0 mm
18:59 25.6 °C 16.4 °C 1001.2 hPa SSW 11.3 km/h 35.4 km/h 57% 0 mm
19:04 25.5 °C 16.3 °C 1000.9 hPa SSW 6.4 km/h 24.1 km/h 57% 0 mm
19:09 25.4 °C 16.3 °C 1001.2 hPa SW 9.7 km/h 24.1 km/h 57% 0 mm
19:14 25.3 °C 16.5 °C 1001.2 hPa SSW 19.3 km/h 35.4 km/h 58% 0 mm
19:19 25.3 °C 16.5 °C 1001.2 hPa South 8 km/h 27.4 km/h 58% 0 mm
19:24 25.2 °C 16.6 °C 1001.2 hPa SSW 11.3 km/h 27.4 km/h 59% 0 mm
19:29 25.2 °C 16.6 °C 1001.2 hPa SSW 11.3 km/h 24.1 km/h 59% 0 mm
19:34 25.1 °C 16.6 °C 1001.2 hPa SSW 11.3 km/h 30.6 km/h 59% 0 mm
19:39 25.1 °C 16.7 °C 1000.9 hPa SSW 11.3 km/h 30.6 km/h 60% 0 mm
19:44 25 °C 16.7 °C 1001.2 hPa SSW 11.3 km/h 25.7 km/h 60% 0 mm
19:49 24.9 °C 16.8 °C 1001.2 hPa South 4.8 km/h 25.7 km/h 61% 0 mm
19:54 24.9 °C 16.9 °C 1001.2 hPa South 16.1 km/h 29 km/h 61% 0 mm
19:59 24.9 °C 16.9 °C 1001.2 hPa SSW 12.9 km/h 27.4 km/h 61% 0 mm
20:04 24.9 °C 16.9 °C 1001.2 hPa West 8 km/h 24.1 km/h 61% 0 mm
20:09 24.9 °C 16.8 °C 1001.2 hPa South 17.7 km/h 24.1 km/h 61% 0 mm
20:14 24.9 °C 16.8 °C 1001.2 hPa SW 14.5 km/h 29 km/h 61% 0 mm
20:19 24.9 °C 16.9 °C 1001.2 hPa South 16.1 km/h 32.2 km/h 61% 0 mm
20:24 24.9 °C 16.9 °C 1001.2 hPa SSW 12.9 km/h 32.2 km/h 61% 0 mm
20:29 25 °C 16.9 °C 1001.2 hPa SSW 12.9 km/h 29 km/h 61% 0 mm
20:34 24.9 °C 16.8 °C 1000.9 hPa SSW 12.9 km/h 25.7 km/h 61% 0 mm
20:39 24.9 °C 16.9 °C 1000.9 hPa SSW 12.9 km/h 29 km/h 61% 0 mm
20:44 25 °C 16.9 °C 1000.9 hPa SSW 16.1 km/h 20.9 km/h 61% 0 mm
20:49 25.1 °C 17 °C 1000.9 hPa SSW 11.3 km/h 29 km/h 61% 0 mm
20:54 25 °C 17.2 °C 1000.6 hPa SSW 12.9 km/h 29 km/h 62% 0 mm
20:59 25 °C 16.9 °C 1000.9 hPa SSW 12.9 km/h 29 km/h 61% 0 mm
21:04 25 °C 17.2 °C 1000.9 hPa SSW 12.9 km/h 29 km/h 62% 0 mm
21:09 25.1 °C 17.3 °C 1000.9 hPa SSW 12.9 km/h 30.6 km/h 62% 0 mm
21:14 25.2 °C 17.1 °C 1000.9 hPa SSW 6.4 km/h 24.1 km/h 61% 0 mm
21:19 25.2 °C 17.4 °C 1000.9 hPa South 16.1 km/h 22.5 km/h 62% 0 mm
21:24 25.2 °C 17.6 °C 1001.2 hPa SW 8 km/h 25.7 km/h 63% 0 mm
21:29 25.1 °C 17.8 °C 1001.2 hPa SSW 12.9 km/h 25.7 km/h 64% 0 mm
21:34 24.9 °C 17.9 °C 1001.2 hPa SSW 11.3 km/h 25.7 km/h 65% 0 mm
21:39 24.8 °C 17.8 °C 1001.2 hPa SW 11.3 km/h 25.7 km/h 65% 0 mm
21:44 24.9 °C 17.8 °C 1001.2 hPa SW 12.9 km/h 30.6 km/h 65% 0 mm
21:49 24.9 °C 18.2 °C 1000.9 hPa SSW 11.3 km/h 29 km/h 66% 0 mm
21:54 24.8 °C 18.5 °C 1000.6 hPa SSW 14.5 km/h 29 km/h 68% 0 mm
21:59 24.4 °C 18.6 °C 1000.9 hPa SSW 14.5 km/h 29 km/h 70% 0.25 mm
22:04 23.9 °C 18.6 °C 1001.2 hPa SW 11.3 km/h 29 km/h 72% 0.51 mm
22:09 23.4 °C 18.7 °C 1001.2 hPa SW 9.7 km/h 29 km/h 75% 1.52 mm
22:14 22.6 °C 18.6 °C 1002.6 hPa West 11.3 km/h 29 km/h 78% 2.79 mm
22:19 21.7 °C 18.5 °C 1001.9 hPa WNW 12.9 km/h 35.4 km/h 82% 9.4 mm
22:24 20.7 °C 17.6 °C 1001.9 hPa SW 9.7 km/h 24.1 km/h 82% 10.16 mm
22:29 20.4 °C 17.6 °C 1002.3 hPa WSW 4.8 km/h 14.5 km/h 84% 10.41 mm
22:34 20.4 °C 18 °C 1002.6 hPa WSW 4.8 km/h 12.9 km/h 86% 10.92 mm
22:39 20.6 °C 18.4 °C 1002.3 hPa WNW 4.8 km/h 12.9 km/h 87% 11.43 mm
22:44 20.6 °C 18.4 °C 1001.9 hPa Calm   9.7 km/h 87% 11.68 mm
22:49 20.6 °C 18.6 °C 1002.3 hPa West 6.4 km/h 9.7 km/h 88% 12.19 mm
22:54 20.5 °C 18.4 °C 1001.9 hPa Calm   9.7 km/h 88% 12.45 mm
22:59 20.3 °C 18.3 °C 1001.9 hPa West 3.2 km/h 11.3 km/h 88% 12.45 mm
23:04 20.2 °C 18.2 °C 1002.3 hPa WNW 4.8 km/h 14.5 km/h 88% 12.45 mm
23:09 20.1 °C 18.2 °C 1002.9 hPa West 6.4 km/h 14.5 km/h 89% 11.68 mm
23:14 20.1 °C 18.2 °C 1002.6 hPa WSW 3.2 km/h 11.3 km/h 89% 10.41 mm
23:19 20.1 °C 18.2 °C 1003.3 hPa West 11.3 km/h 11.3 km/h 89% 3.81 mm
23:24 19.9 °C 18.1 °C 1002.6 hPa WSW 3.2 km/h 20.9 km/h 89% 4.06 mm
23:25 19.9 °C 18.1 °C 1002.6 hPa SW 8 km/h 20.9 km/h 89% 4.06 mm
23:34 19.7 °C 17.8 °C 1002.6 hPa WSW 6.4 km/h 14.5 km/h 89% 3.81 mm
23:39 19.7 °C 17.8 °C 1002.3 hPa WSW 4.8 km/h 14.5 km/h 89% 3.3 mm
23:44 19.6 °C 17.7 °C 1002.3 hPa WSW 4.8 km/h 9.7 km/h 89% 3.05 mm
23:49 19.6 °C 17.7 °C 1002.6 hPa WNW 3.2 km/h 8 km/h 89% 2.79 mm
23:54 19.5 °C 17.6 °C 1002.6 hPa Calm   9.7 km/h 89% 2.54 mm
23:59 19.5 °C 17.6 °C 1002.6 hPa West 4.8 km/h 9.7 km/h 89% 2.29 mm
Buffalo, New York, USA
Compliments of Weather Underground - 2.5 mb